Frederick, MD

5:26 AM EST on December 16, 2019 (GMT -0500)
Frederick Municipal

Weather History for KFDK - November, 2019

Change the Weather History Date:

Tuesday, November 19, 2019

  Actual Average (KHGR) Record (KHGR)
Temperature  
Mean Temperature 46 °F -  
Max Temperature 55 °F 50 °F 68 °F (2016)
Min Temperature 37 °F 34 °F 18 °F (2014)
Degree Days  
Heating Degree Days 19    
Moisture  
Dew Point 37 °F    
Average Humidity 81    
Maximum Humidity 100    
Minimum Humidity 47    
Precipitation  
Precipitation 0.00 in - - ()
Sea Level Pressure  
Sea Level Pressure 29.81 in    
Wind  
Wind Speed 2 mph (SSW)    
Max Wind Speed 7 mph    
Max Gust Speed -    
Visibility 7 miles    
Events      
Averages and records for this station are not official NWS values.
T = Trace of Precipitation, MM = Missing Value Source: NWS Daily Summary

Daily Weather History Graph

Daily Weather History Graph

Search for Another Location

Airport or City:

Astronomy

Nov. 19, 2019 Rise Set
Actual Time 6:57 AM EST 4:51 PM EST
Civil Twilight 6:28 AM EST 5:20 PM EST
Nautical Twilight 5:55 AM EST 5:53 PM EST
Astronomical Twilight 5:23 AM EST 6:25 PM EST
Moon 11:44 PM EST (11/19) 1:06 PM EST (11/19)
Length of Visible Light 10h 52m
Length of Day
9h 54m
Waning Gibbous, 52% of the Moon is Illuminated
Nov 19
Waning Gibbous
Nov 19
Last Quarter
Nov 26
New
Dec 4
First Quarter
Dec 12
Full

Hourly Weather History & Observations

Time (EST) Temp. Windchill Dew Point Humidity Pressure Visibility Wind Dir Wind Speed Gust Speed Precip Events Conditions
12:15 AM 41.0 °F 39.0 °F 37.4 °F 87% 29.76 in 5.0 mi South 3.5 mph - N/A   Overcast
12:35 AM 41.0 °F 39.0 °F 37.4 °F 87% 29.76 in 5.0 mi South 3.5 mph - N/A   Overcast
12:55 AM 41.0 °F 39.0 °F 37.4 °F 87% 29.76 in 5.0 mi WSW 3.5 mph - N/A   Overcast
1:15 AM 41.0 °F - 37.4 °F 87% 29.75 in 5.0 mi Calm Calm - N/A   Overcast
1:35 AM 39.2 °F - 37.4 °F 93% 29.76 in 5.0 mi Calm Calm - N/A   Overcast
1:55 AM 39.2 °F 35.9 °F 37.4 °F 93% 29.76 in 5.0 mi SSW 4.6 mph - N/A   Overcast
2:15 AM 39.2 °F - 37.4 °F 93% 29.76 in 4.0 mi Calm Calm - N/A   Overcast
2:35 AM 39.2 °F 37.0 °F 37.4 °F 93% 29.77 in 4.0 mi South 3.5 mph - N/A   Overcast
2:55 AM 39.2 °F - 37.4 °F 93% 29.77 in 5.0 mi Calm Calm - N/A   Overcast
3:15 AM 39.2 °F - 37.4 °F 93% 29.77 in 4.0 mi Calm Calm - N/A   Overcast
3:35 AM 39.2 °F - 37.4 °F 93% 29.76 in 4.0 mi Calm Calm - N/A   Overcast
3:55 AM 39.2 °F 37.0 °F 37.4 °F 93% 29.76 in 4.0 mi SE 3.5 mph - N/A   Overcast
4:15 AM 41.0 °F 39.0 °F 37.4 °F 87% 29.76 in 5.0 mi SSE 3.5 mph - N/A   Overcast
4:35 AM 39.2 °F - 37.4 °F 93% 29.76 in 5.0 mi Calm Calm - N/A   Overcast
4:55 AM 39.2 °F 37.0 °F 37.4 °F 93% 29.76 in 5.0 mi SSE 3.5 mph - N/A   Overcast
5:15 AM 37.4 °F - 37.4 °F 100% 29.77 in 5.0 mi Calm Calm - N/A   Scattered Clouds
5:35 AM 37.4 °F 34.9 °F 35.6 °F 93% 29.77 in 4.0 mi South 3.5 mph - N/A   Clear
5:55 AM 37.4 °F 34.9 °F 35.6 °F 93% 29.78 in 5.0 mi South 3.5 mph - N/A   Clear
6:15 AM 37.4 °F 34.9 °F 35.6 °F 93% 29.80 in 5.0 mi South 3.5 mph - N/A   Clear
6:35 AM 37.4 °F 33.8 °F 35.6 °F 93% 29.80 in 5.0 mi South 4.6 mph - N/A   Mostly Cloudy
6:47 AM 39.2 °F 37.0 °F 37.4 °F 93% 29.81 in 5.0 mi SSW 3.5 mph - N/A   Overcast
6:55 AM 37.4 °F - 35.6 °F 93% 29.81 in 5.0 mi Calm Calm - N/A   Overcast
7:00 AM 37.4 °F 33.8 °F 35.6 °F 93% 29.81 in 5.0 mi South 4.6 mph - N/A   Mostly Cloudy
7:47 AM 37.4 °F - 37.4 °F 100% 29.82 in 4.0 mi Calm Calm - N/A   Clear
8:47 AM 44.6 °F 42.2 °F 39.2 °F 81% 29.84 in 5.0 mi SW 4.6 mph - N/A   Clear
9:47 AM 46.4 °F - 39.2 °F 76% 29.84 in 7.0 mi Calm Calm - N/A   Haze
11:47 AM 53.6 °F - 35.6 °F 51% 29.81 in 10.0 mi Calm Calm - N/A   Clear
12:47 PM 55.4 °F - 35.6 °F 47% 29.81 in 10.0 mi West 6.9 mph - N/A   Clear
1:47 PM 55.4 °F - 35.6 °F 47% 29.80 in 10.0 mi West 6.9 mph - N/A   Clear
3:47 PM 53.6 °F - 37.4 °F 54% 29.82 in 10.0 mi Variable 5.8 mph - N/A   Clear
4:47 PM 51.8 °F - 35.6 °F 54% 29.83 in 10.0 mi Calm Calm - N/A   Clear
5:47 PM 48.2 °F - 37.4 °F 66% 29.84 in 10.0 mi Calm Calm - N/A   Overcast
6:47 PM 48.2 °F - 37.4 °F 66% 29.85 in 10.0 mi Calm Calm - N/A   Overcast
7:47 PM 46.4 °F - 39.2 °F 76% 29.86 in 10.0 mi Calm Calm - N/A   Overcast
9:15 PM 46.4 °F - 37.4 °F 71% 29.88 in 10.0 mi Calm Calm - N/A   Overcast
9:35 PM 46.4 °F - 37.4 °F 71% 29.88 in 10.0 mi Calm Calm - N/A   Overcast
9:55 PM 46.4 °F - 37.4 °F 71% 29.88 in 10.0 mi Calm Calm - N/A   Overcast
10:15 PM 46.4 °F - 37.4 °F 71% 29.88 in 10.0 mi Calm Calm - N/A   Overcast
10:35 PM 46.4 °F - 37.4 °F 71% 29.88 in 10.0 mi Calm Calm - N/A   Overcast
10:55 PM 44.6 °F - 39.2 °F 81% 29.88 in 10.0 mi Calm Calm - N/A   Overcast
11:15 PM 44.6 °F - 37.4 °F 76% 29.88 in 10.0 mi Calm Calm - N/A   Overcast
11:35 PM 44.6 °F - 39.2 °F 81% 29.89 in 10.0 mi Calm Calm - N/A   Overcast
11:55 PM 44.6 °F - 37.4 °F 76% 29.89 in 10.0 mi Calm Calm - N/A   Overcast